Location: Torrington
(42.0650°N, 104.1810°W)
Time: 00:50:38
(UTC-07:00)

Daily predictions for brighter satellites

Satellite Brightness Start Highest point End
(mag) Time Altitude Azimuth Time Altitude Azimuth Time Altitude Azimuth
CZ-3 R/B 4.4 03:42:24 10° SW 03:57:00 22° S 04:03:08 10° SE
SL-16 R/B 4.2 04:09:01 18° NNE 04:09:01 18° NNE 04:10:23 10° NNE
USA 215 4.3 04:09:26 10° ENE 04:15:29 39° SE 04:20:10 16° S
Lacrosse 5 2.6 04:24:03 49° ESE 04:24:03 49° ESE 04:28:47 10° NE
CENTAUR R/B 3.7 04:28:32 32° N 04:28:32 32° N 04:32:55 10° NNE
SL-08 ROCKET BODY 4.4 04:22:45 10° S 04:28:42 78° E 04:34:35 10° N
Tiangong 2 3.7 04:45:33 21° E 04:45:33 21° E 04:46:43 10° E
Cosmos 2327 Rocket 4.4 04:39:22 10° S 04:45:44 83° W 04:52:05 10° N
Cosmos 2074 Rocket 3.9 04:48:57 10° SSW 04:55:11 67° W 05:01:26 10° N
SKYMED 2 4.0 04:53:44 10° SSE 04:58:00 60° ENE 05:00:03 29° N
CRYOSAT 2 4.4 04:54:10 10° S 04:59:02 81° E 05:03:56 10° N
Cosmos 2369 Rocket 2.7 04:56:19 23° N 04:59:49 59° ENE 05:05:26 10° SE
SJ-6F 4.3 04:58:10 10° NNE 05:02:15 85° E 05:06:20 10° SSW
Cosmos 1603 3.6 05:01:03 44° SW 05:02:45 66° WNW 05:08:23 10° NNE
Cosmos 44 3.9 05:03:56 10° SSW 05:09:13 62° ESE 05:14:22 10° NE
NOAA 6 3.9 05:04:47 10° NNE 05:09:56 84° WNW 05:15:04 10° SSW
Celestis-02/Orion 38 4.5 05:05:01 10° SSE 05:10:11 77° WSW 05:12:24 36° NW
Transit 2A Rocket 4.4 05:11:46 63° W 05:12:03 65° WSW 05:16:18 10° SSE
Cosmos 2184 Rocket 4.1 05:07:37 10° SSW 05:13:35 50° WNW 05:19:36 10° N
Cosmos 1536 3.2 05:12:45 10° S 05:16:41 62° E 05:20:40 10° NNE
CZ-4 R/B 4.1 05:16:24 10° NE 05:19:22 20° E 05:22:17 10° SE
Cosmos 1025 Rocket 3.7 05:15:20 10° N 05:19:40 56° E 05:23:56 10° SSE
Cosmos 1633 2.4 05:21:29 10° SSW 05:25:05 63° W 05:28:42 10° N
Cosmos 1943 3.1 05:20:03 10° SSW 05:25:40 88° ESE 05:31:21 10° NNE
Abrixas rocket 2.2 05:28:43 62° NW 05:28:49 62° NNW 05:32:10 10° ENE
USA 229 DEB 4.2 05:22:24 10° SSW 05:29:08 62° ESE 05:35:59 10° NE
USA 229 4.2 05:22:31 10° SSW 05:29:14 61° ESE 05:36:04 10° NE
Cosmos 2154 Rocket 3.9 05:23:17 10° SSW 05:29:29 72° W 05:35:41 10° N
Cosmos 1943 Rocket 2.8 05:32:29 10° NNW 05:37:54 55° ENE 05:43:18 10° SE
Okean 1 Rocket 3.3 05:35:13 10° SSW 05:39:25 45° WNW 05:43:38 10° N
Lacrosse 5 rocket 3.8 05:38:18 10° N 05:39:28 11° N 05:40:42 10° NNE
Cosmos 2056 Rocket 4.2 05:40:01 28° WNW 05:41:11 31° W 05:45:38 10° SSW
Cosmos 1420 Rocket 4.4 05:36:29 10° NNW 05:41:43 63° ENE 05:46:51 10° SSE
SL-23 DEB 4.1 05:40:47 30° NNW 05:41:58 45° NNE 05:45:25 10° ESE
Lacrosse 4 Rocket 2.9 05:39:14 10° N 05:42:59 32° NE 05:46:39 10° ESE
COSMO-SKYMED 1 3.0 05:42:01 10° SSW 05:46:05 39° W 05:48:37 20° NW
SL-16 R/B 4.0 05:50:56 13° NNW 05:50:56 13° NNW 05:52:32 10° NNW
Ariane Rocket 2.9 05:47:40 10° N 05:52:40 63° WNW 05:57:39 10° SSW
CZ-2C R/B 3.7 05:49:53 10° NNE 05:54:51 45° E 05:59:40 10° S
Cosmos 1048 Rocket 4.5 05:51:12 10° S 05:56:15 63° ESE 06:01:23 10° NNE
Cosmos 44 Rocket 4.0 05:52:42 15° WSW 05:56:28 35° NW 06:01:09 10° NNE
USA 215 3.3 05:52:14 10° NE 05:58:40 63° NW 06:05:05 10° WSW
SL-8 Rocket 4.0 05:52:26 10° S 05:58:42 89° E 06:04:57 10° N
SL-24 DEB 4.5 05:57:22 10° SSW 06:02:00 51° W 06:06:42 10° NNW
Cosmos 1975 4.5 05:58:16 10° SSE 06:02:04 38° E 06:05:54 10° NNE
Okean 1-7 Rocket 4.3 05:58:58 14° NW 06:02:05 30° W 06:05:55 10° SSW
Meteor 1-28 Rocket 3.7 06:02:00 10° SSW 06:05:34 39° W 06:09:11 10° NNW
Cosmos 1892 Rocket 3.5 06:01:27 10° N 06:05:55 80° W 06:10:23 10° S
Lacrosse 5 2.5 06:03:20 15° W 06:06:59 35° NNW 06:11:40 10° NE
Helios 1B rocket 3.0 06:05:18 10° SSE 06:09:23 61° ENE 06:13:30 10° N
Cosmos 1900 4.4 06:05:10 12° NW 06:09:35 63° WSW 06:14:27 10° SSE
Cosmos 2263 4.4 06:04:22 10° NNW 06:09:50 53° WSW 06:15:15 10° S
Cosmos 2366 rocket 4.2 06:04:58 10° S 06:11:16 82° E 06:17:38 10° N
Cosmos 1959 Rocket 4.4 06:06:14 10° S 06:12:21 86° W 06:18:30 10° N
GRACE-2 4.2 06:11:15 10° NNW 06:13:56 43° W 06:16:35 10° SSW
GRACE-1 4.2 06:11:41 10° NNW 06:14:21 42° W 06:17:00 10° SSW
Cosmos 1340 2.7 06:12:21 10° NNW 06:16:05 55° W 06:19:47 10° S
CENTAUR R/B 4.3 06:15:44 11° NW 06:19:20 15° NNW 06:23:26 10° NNE
Cosmos 2218 Rocket 4.0 06:13:17 10° SSW 06:19:41 77° W 06:26:06 10° N
Tiangong 2 1.6 06:17:36 14° W 06:20:06 49° SSW 06:23:09 10° SE
Cosmos 1461 3.8 06:16:40 10° SSW 06:20:53 54° ESE 06:24:58 10° NE
IDEFIX/ARIANE 42P 2.8 06:17:14 10° NNE 06:22:27 79° ESE 06:27:39 10° S
SL-27 R/B 3.9 06:19:16 10° S 06:22:38 43° ESE 06:26:06 10° NNE
CSL-04 Rocket 4.0 06:19:16 10° N 06:24:30 43° WNW 06:29:39 10° SW
Cosmos 2084 3.2 06:25:46 10° SW 06:29:36 60° NW 06:33:22 10° NNE
Cosmos 1452 Rocket 4.5 06:25:54 10° NW 06:30:20 28° W 06:34:45 10° SSW
CSL-04 Debris 4.5 06:25:32 10° N 06:30:42 45° WNW 06:35:53 10° SW
Cosmos 1455 Rocket 3.0 06:26:31 10° SSW 06:30:47 62° W 06:35:05 10° N
USA 129 3.8 06:33:04 10° SW 06:34:15 13° W 06:35:26 10° WNW
CZ-4 R/B 4.5 06:35:26 10° NNE 06:39:38 90° W 06:43:47 10° SSW
COSMOS 2406 3.5 06:34:42 10° SSW 06:40:21 78° ESE 06:46:02 10° NNE
Okean 2 4.4 06:37:37 10° NNW 06:41:10 27° W 06:44:40 10° SSW
Cosmos 2369 Rocket 3.6 06:39:17 10° NW 06:43:20 20° W 06:47:21 10° SW
Cosmos 1727 Rocket 4.0 06:37:16 10° NNW 06:43:24 66° W 06:49:31 10° S
ATLAS 3B R/B 4.4 06:39:23 10° NNW 06:44:41 22° NNE 06:49:45 10° E
